Location: Presov
(49.0000°N, 21.2500°E)
Time: 00:42:06
(UTC+02:00)

Transit 2A Rocket - Pass Details

Date: 16 April 2021
Orbit: 594 x 908 km, 66.7° (Epoch: 05 May)

Event Time Altitude Azimuth Distance (km) Brightness Sun altitude
Rises 22:33:40 0° 328° (NNW) 2,845 9.4 -24.9°
Reaches altitude 10° 22:37:24 10° 2° (N) 1,957 7.8 -25.2°
Maximum altitude 22:39:01 12° 23° (NNE) 1,855 7.4 -25.3°
Drops below altitude 10° 22:40:38 10° 45° (NE) 1,986 7.3 -25.5°
Enters shadow 22:41:52 - 59° (ENE) 2,217 7.4 -25.6°
Sets 22:44:30 0° 78° (ENE) 2,946 - -25.8°
